Погода в Борках

Россия / Белгородская область     50°08′45″N   37°53′08″E
темп.,
°C
ветер,
м/с
пор.,
м/с
влажн.,
%
обл.,
%
осадки,
мм/ч
давл.,
гПа
погр.,
м
13 апреля, вт
вт1300:00+12вюв117266 0.0 102311
03:00+10в2281100 0.0 102328
06:00+9вюв368199 0.0 1023105
09:00+14вюв6105699 0.0 1023482
12:00+18вюв710435 0.0 10211225
15:00+16юв6116284 0.0 10211050
18:00+15ююв6106894 0.2 1021811
21:00+11ю349173 0.2 102286
14 апреля, ср
ср1400:00+10ю1191100 0.0 102211
03:00+10в118997 0.1 102112
06:00+9ссв2293100 0.0 101918
09:00+13вюв2278100 0.3 1019426
12:00+15ююз236788 0.2 1018874
15:00+17ююв3644100 0.6 10161968
18:00+16ююв1352100 0.0 101584
21:00+12ссз2374100 0.1 101693
15 апреля, чт
чт1500:00+11всв1270100 0.0 101519
03:00+10ююз22766 0.0 101417
06:00+8зюз12905 0.0 101512
09:00+12юз3368100 0.0 1015422
12:00+16ююз4552100 0.0 10151347
15:00+17ююз554652 0.0 10141663
18:00+15ююв3453100 0.0 10141051
21:00+12юз4878100 0.2 1015491
16 апреля, пт
пт1600:00+11ю487791 0.1 1014525
03:00+9ююв368820 0.3 1014138
06:00+8ю2494100 0.0 1015101
09:00+11ююз4572100 0.0 1016698
12:00+14ю575287 0.0 10161711
15:00+12юз6758100 0.0 1016930
18:00+12зюз555344 0.0 1016698
21:00+8зсз236783 0.0 101752
17 апреля, сб
сб1700:00+7ссз2270100 0.0 101815
03:00+7ссв1171100 0.0 101813
06:00+7всв0084100 0.0 101814
09:00+9з346674 0.2 1018542
12:00+11з3558100 0.1 10191399
15:00+12зюз345792 0.4 10191261
18:00+13з125095 0.0 10201264
21:00+8всв127789 0.0 102160